カタログに戻る

NOAA 17 DEB

運用中PO
NORAD 48167·DEBRIS·🇺🇸 United States

打ち上げ Jun 24, 2002 から Vandenberg Space Force Base

Loading…

次のパス (今後24時間)

TLE

最新Source: Space-Track

元期: Sep 14, 2026, 12:22 UTC

1 48167U 02032H   26257.51566638  .00008291  00000-0  13285-2 0  9996
2 48167  98.7248 272.1512 0022546 167.7049 192.4711 14.71838979289729

AllMySatでNOAA 17 DEBをリアルタイム追跡

Download on the App Store